This is the latest recevied weather packets stored in our database for station/object E25RIV-1. If no packets are shown the sender has not sent any weather packets the latest 10 day(s).
| Time | Temp. | Humidity | Pressure | Rain* | Wind** | Luminosity | Snow |
|---|---|---|---|---|---|---|---|
| 1777698177 | 38.33° C | 43% | 990 hPa | - | - | 0 W/m² | - |
| 1777697553 | 37.78° C | 44% | 991 hPa | - | - | 0 W/m² | - |
| 1777696929 | 38.89° C | 44% | 990 hPa | - | - | 0 W/m² | - |
| 1777696304 | 39.44° C | 42% | 989 hPa | - | - | 0 W/m² | - |
| 1777695681 | 38.89° C | 44% | 990 hPa | - | - | 0 W/m² | - |
| 1777695057 | 38.33° C | 46% | 991 hPa | - | - | 0 W/m² | - |
| 1777694433 | 38.33° C | 48% | 992 hPa | - | - | 0 W/m² | - |
| 1777693809 | 37.22° C | 51% | 994 hPa | - | - | 0 W/m² | - |
| 1777693185 | 36.67° C | 51% | 994 hPa | - | - | 0 W/m² | - |
| 1777692561 | 37.22° C | 51% | 993 hPa | - | - | 0 W/m² | - |
| 1777691937 | 36.67° C | 56% | 996 hPa | - | - | 0 W/m² | - |
| 1777691313 | 36.67° C | 58% | 997 hPa | - | - | 0 W/m² | - |
| 1777690689 | 35.56° C | 61% | 998 hPa | - | - | 0 W/m² | - |
| 1777690065 | 35.56° C | 62% | 999 hPa | - | - | 0 W/m² | - |
| 1777689441 | 35.56° C | 66% | 1000 hPa | - | - | 0 W/m² | - |
| 1777688817 | 35° C | 66% | 1000 hPa | - | - | 0 W/m² | - |
| 1777688193 | 35° C | 72% | 1003 hPa | - | - | 0 W/m² | - |
| 1777687569 | 34.44° C | 72% | 1003 hPa | - | - | 0 W/m² | - |
| 1777686945 | 33.89° C | 71% | 1002 hPa | - | - | 0 W/m² | - |
| 1777686321 | 33.89° C | 71% | 1002 hPa | - | - | 0 W/m² | - |
| 1777685697 | 33.89° C | 76% | 1003 hPa | - | - | 0 W/m² | - |
| 1777685073 | 33.89° C | 76% | 1003 hPa | - | - | 0 W/m² | - |
| 1777684449 | 33.89° C | 78% | 1003 hPa | - | - | 0 W/m² | - |
| 1777683825 | 33.89° C | 76% | 1002 hPa | - | - | 0 W/m² | - |
| 1777683201 | 33.89° C | 78% | 1003 hPa | - | - | 0 W/m² | - |
* Rain since midnight (hover to see other rain measurements)
** Current wind speed in m/s (hover to see current wind gust speed)